Location: Antioch Baptist Church
(32.7160°N, 96.7483°W)
Time: 19:55:39
(UTC+00:00)

SJ-7 - Pass Details

Date: 05 December 2023
Orbit: 539 x 573 km, 97.8° (Epoch: 20 February)

Event Time Altitude Azimuth Distance (km) Brightness Sun altitude
Rises 12:22:31 0° 11° (N) 2,796 7.8 -10.9°
Reaches altitude 10° 12:24:41 10° 11° (N) 1,895 7.0 -10.5°
Maximum altitude 12:28:48 86° 282° (WNW) 584 4.4 -9.6°
Drops below altitude 10° 12:32:53 10° 194° (SSW) 1,879 7.1 -8.8°
Sets 12:35:00 0° 194° (SSW) 2,770 8.0 -8.4°
